Find Local Weather

World > North America > United States > Illinois

Chicago, Illinois Regional Weather

Lat: 41.88N, Lon: 87.63W
Wx Zone: ILZ014
Warning FLW WEATHER ALERT - (More Info. Click Here) Warning
Feedback
Expires:201806190500;;759892
ASUS43 KLOT 190409
RWRIL 

ILLINOIS REGIONAL WEATHER ROUNDUP
NATIONAL WEATHER SERVICE CHICAGO/ROMEOVILLE IL
1100 PM CDT MON JUN 18 2018

NOTE: "FAIR" INDICATES FEW OR NO CLOUDS BELOW 12,000 FEET WITH NO
SIGNIFICANT WEATHER AND/OR OBSTRUCTIONS TO VISIBILITY.

* THESE STATIONS ARE NOT UNDER NWS QUALITY CONTROL. THEY ALSO MAY NOT
  REPORT WEATHER SUCH AS PRECIPITATION OR FOG.


ILZ005-006-012>014-019>023-190500-
NORTHEAST ILLINOIS
  
CITY           SKY/WX    TMP DP  RH WIND       PRES   REMARKS
CHICAGO-OHARE  CLOUDY    73  70  90 N10       29.98R                  
CHICAGO-MIDWAY MOCLDY    76  71  85 N8        29.98R                  
AURORA         MOCLDY    74  70  87 NW16G24   30.00R                  
LANSING*       FAIR      73  73 100 CALM      30.00R                  
JOLIET*        CLOUDY    75  73  91 CALM      30.00R                  
WAUKEGAN       LGT RAIN  64  64 100 N9        30.00R                  
DUPAGE AIRPORT FAIR      74  72  93 NW5       29.99R                  
KANKAKEE*      MOCLDY    75  71  86 E3        30.00F                  
WHEELING       LGT RAIN  71  70  96 NW5       30.01R                  
MORRIS*        LGT RAIN  73  71  93 NW3       29.98F                  
ROMEOVILLE*    MOCLDY    73  69  87 CALM      30.01R                  
NORTHERLY ISL    N/A     64  62  93 N13         N/A                   
$$


SKY/WX - Weather  TMP - Temperature  DP - Dewpoint  RH - Relative Humidity
WIND - Wind Direction/Speed PRES - Barometric Pressure